Time,TemperatureF,DewpointF,PressureIn,WindDirection,WindDirectionDegrees,WindSpeedMPH,WindSpeedGustMPH,Humidity,HourlyPrecipIn,Conditions,Clouds,dailyrainin,SoftwareType,DateUTC
2013-04-02 00:00:00,66.7,66.2,30.05,SE,135,0.0,1.0,98,0.00,,,0.00,meteohub,2013-04-02 04:00:00,
2013-04-02 00:02:00,66.7,66.2,30.05,South,180,1.0,1.0,98,0.00,,,0.00,meteohub,2013-04-02 04:02:00,
2013-04-02 00:07:00,66.6,66.0,30.05,SE,135,0.0,1.0,98,0.00,,,0.00,meteohub,2013-04-02 04:07:00,
2013-04-02 00:12:00,66.6,66.0,30.05,SE,135,0.0,1.0,98,0.00,,,0.00,meteohub,2013-04-02 04:12:00,
2013-04-02 00:17:00,66.2,65.7,30.05,SE,135,0.0,1.0,98,0.00,,,0.00,meteohub,2013-04-02 04:17:00,
2013-04-02 00:23:00,66.2,65.7,30.05,SE,135,0.0,0.0,98,0.00,,,0.00,meteohub,2013-04-02 04:23:00,
2013-04-02 00:28:00,66.0,65.5,30.05,SE,135,0.0,0.0,98,0.00,,,0.00,meteohub,2013-04-02 04:28:00,
2013-04-02 00:33:00,65.8,65.3,30.05,South,180,0.0,0.0,98,0.00,,,0.00,meteohub,2013-04-02 04:33:00,
2013-04-02 00:38:00,65.8,65.3,30.05,SE,135,0.0,0.0,98,0.00,,,0.00,meteohub,2013-04-02 04:38:00,
2013-04-02 00:43:00,65.7,65.1,30.05,SE,135,2.0,0.0,98,0.00,,,0.00,meteohub,2013-04-02 04:43:00,
2013-04-02 00:48:00,65.8,65.3,30.04,SE,135,0.0,2.0,98,0.00,,,0.00,meteohub,2013-04-02 04:48:00,
2013-04-02 00:53:00,65.7,65.1,30.04,SE,135,0.0,2.0,98,0.00,,,0.00,meteohub,2013-04-02 04:53:00,
2013-04-02 00:59:00,65.5,64.9,30.04,SE,135,0.0,2.0,98,0.00,,,0.00,meteohub,2013-04-02 04:59:00,
2013-04-02 01:04:00,65.5,64.9,30.04,SE,135,0.0,0.0,98,0.00,,,0.00,meteohub,2013-04-02 05:04:00,
2013-04-02 01:09:00,65.3,64.8,30.04,SE,135,0.0,0.0,98,0.00,,,0.00,meteohub,2013-04-02 05:09:00,
2013-04-02 01:14:00,65.1,64.6,30.04,South,180,0.0,0.0,98,0.00,,,0.00,meteohub,2013-04-02 05:14:00,
2013-04-02 01:19:00,64.8,64.2,30.04,South,180,0.0,0.0,98,0.00,,,0.00,meteohub,2013-04-02 05:19:00,
2013-04-02 01:24:00,64.6,64.0,30.04,SE,135,0.0,0.0,98,0.00,,,0.00,meteohub,2013-04-02 05:24:00,
2013-04-02 01:29:00,64.6,64.0,30.04,SE,135,0.0,0.0,98,0.00,,,0.00,meteohub,2013-04-02 05:29:00,
2013-04-02 01:34:00,64.4,63.9,30.04,SE,135,0.0,0.0,98,0.00,,,0.00,meteohub,2013-04-02 05:34:00,
2013-04-02 01:40:00,64.2,63.9,30.04,SE,135,0.0,0.0,99,0.00,,,0.00,meteohub,2013-04-02 05:40:00,
2013-04-02 01:45:00,64.0,63.7,30.03,SE,135,0.0,0.0,99,0.00,,,0.00,meteohub,2013-04-02 05:45:00,
2013-04-02 01:50:00,64.0,63.7,30.04,SE,135,0.0,0.0,99,0.00,,,0.00,meteohub,2013-04-02 05:50:00,
2013-04-02 01:56:00,64.0,63.7,30.04,SE,135,0.0,0.0,99,0.00,,,0.00,meteohub,2013-04-02 05:56:00,
2013-04-02 02:01:00,63.9,63.5,30.04,South,180,0.0,0.0,99,0.00,,,0.00,meteohub,2013-04-02 06:01:00,
2013-04-02 02:06:00,63.7,63.3,30.04,SE,135,0.0,0.0,99,0.00,,,0.00,meteohub,2013-04-02 06:06:00,
2013-04-02 02:11:00,63.7,63.3,30.04,SE,135,0.0,0.0,99,0.00,,,0.00,meteohub,2013-04-02 06:11:00,
2013-04-02 02:17:00,63.7,63.3,30.04,East,90,0.0,0.0,99,0.00,,,0.00,meteohub,2013-04-02 06:17:00,
2013-04-02 02:22:00,63.7,63.3,30.04,East,90,0.0,0.0,99,0.00,,,0.00,meteohub,2013-04-02 06:22:00,
2013-04-02 02:27:00,63.3,63.0,30.04,SE,135,0.0,0.0,99,0.00,,,0.00,meteohub,2013-04-02 06:27:00,
2013-04-02 02:32:00,63.3,63.0,30.03,SE,135,0.0,0.0,99,0.00,,,0.00,meteohub,2013-04-02 06:32:00,
2013-04-02 02:37:00,63.3,63.0,30.04,SE,135,0.0,0.0,99,0.00,,,0.00,meteohub,2013-04-02 06:37:00,
2013-04-02 02:42:00,63.3,63.0,30.04,East,90,0.0,0.0,99,0.00,,,0.00,meteohub,2013-04-02 06:42:00,
2013-04-02 02:47:00,63.3,63.0,30.04,East,90,0.0,0.0,99,0.00,,,0.00,meteohub,2013-04-02 06:47:00,
2013-04-02 02:52:00,63.3,63.0,30.04,East,90,0.0,0.0,99,0.00,,,0.00,meteohub,2013-04-02 06:52:00,
2013-04-02 02:58:00,63.3,63.0,30.04,East,90,0.0,0.0,99,0.00,,,0.00,meteohub,2013-04-02 06:58:00,
2013-04-02 03:03:00,63.3,63.0,30.04,East,90,0.0,0.0,99,0.00,,,0.00,meteohub,2013-04-02 07:03:00,
2013-04-02 03:08:00,63.3,63.0,30.04,East,90,0.0,0.0,99,0.00,,,0.00,meteohub,2013-04-02 07:08:00,
2013-04-02 03:14:00,63.3,63.0,30.03,East,90,0.0,0.0,99,0.00,,,0.00,meteohub,2013-04-02 07:14:00,
2013-04-02 03:19:00,63.1,62.8,30.03,East,90,0.0,0.0,99,0.00,,,0.00,meteohub,2013-04-02 07:19:00,
2013-04-02 03:24:00,63.1,62.8,30.03,East,90,0.0,0.0,99,0.00,,,0.00,meteohub,2013-04-02 07:24:00,
2013-04-02 03:29:00,63.0,62.6,30.03,East,90,0.0,0.0,99,0.00,,,0.00,meteohub,2013-04-02 07:29:00,
2013-04-02 03:35:00,63.0,62.6,30.04,East,90,0.0,0.0,99,0.00,,,0.00,meteohub,2013-04-02 07:35:00,
2013-04-02 03:40:00,63.0,62.6,30.04,East,90,0.0,0.0,99,0.00,,,0.00,meteohub,2013-04-02 07:40:00,
2013-04-02 03:45:00,62.8,62.4,30.04,East,90,0.0,0.0,99,0.00,,,0.00,meteohub,2013-04-02 07:45:00,
2013-04-02 03:50:00,62.8,62.4,30.04,East,90,0.0,0.0,99,0.00,,,0.00,meteohub,2013-04-02 07:50:00,
2013-04-02 03:56:00,62.6,62.2,30.03,East,90,0.0,0.0,99,0.00,,,0.00,meteohub,2013-04-02 07:56:00,
2013-04-02 04:01:00,62.6,62.2,30.04,East,90,0.0,0.0,99,0.00,,,0.00,meteohub,2013-04-02 08:01:00,
2013-04-02 04:06:00,62.6,62.2,30.04,East,90,0.0,0.0,99,0.00,,,0.00,meteohub,2013-04-02 08:06:00,
2013-04-02 04:11:00,62.4,62.1,30.04,East,90,0.0,0.0,99,0.00,,,0.00,meteohub,2013-04-02 08:11:00,
2013-04-02 04:16:00,62.2,61.9,30.04,East,90,0.0,0.0,99,0.00,,,0.00,meteohub,2013-04-02 08:16:00,
2013-04-02 04:21:00,62.2,61.9,30.04,East,90,0.0,0.0,99,0.00,,,0.00,meteohub,2013-04-02 08:21:00,
2013-04-02 04:27:00,62.1,61.7,30.04,East,90,0.0,0.0,99,0.00,,,0.00,meteohub,2013-04-02 08:27:00,
2013-04-02 04:32:00,62.1,61.7,30.04,East,90,0.0,0.0,99,0.00,,,0.00,meteohub,2013-04-02 08:32:00,
2013-04-02 04:37:00,62.1,61.7,30.04,East,90,0.0,0.0,99,0.00,,,0.00,meteohub,2013-04-02 08:37:00,
2013-04-02 04:42:00,62.2,61.9,30.04,East,90,0.0,0.0,99,0.00,,,0.00,meteohub,2013-04-02 08:42:00,
2013-04-02 04:47:00,62.2,61.9,30.05,East,90,0.0,0.0,99,0.00,,,0.00,meteohub,2013-04-02 08:47:00,
2013-04-02 04:52:00,62.4,62.1,30.05,East,90,0.0,0.0,99,0.00,,,0.00,meteohub,2013-04-02 08:52:00,
2013-04-02 04:57:00,62.6,62.2,30.05,East,90,0.0,0.0,99,0.00,,,0.00,meteohub,2013-04-02 08:57:00,
2013-04-02 05:02:00,62.8,62.4,30.05,East,90,0.0,0.0,99,0.00,,,0.00,meteohub,2013-04-02 09:02:00,
2013-04-02 05:07:00,62.8,62.4,30.04,East,90,0.0,0.0,99,0.00,,,0.00,meteohub,2013-04-02 09:07:00,
2013-04-02 05:12:00,62.8,62.4,30.05,East,90,0.0,0.0,99,0.00,,,0.00,meteohub,2013-04-02 09:12:00,
2013-04-02 05:17:00,62.6,62.2,30.04,East,90,0.0,0.0,99,0.00,,,0.00,meteohub,2013-04-02 09:17:00,
2013-04-02 05:22:00,62.8,62.4,30.05,East,90,0.0,0.0,99,0.00,,,0.00,meteohub,2013-04-02 09:22:00,
2013-04-02 05:28:00,62.8,62.4,30.05,East,90,0.0,0.0,99,0.00,,,0.00,meteohub,2013-04-02 09:28:00,
2013-04-02 05:33:00,63.0,62.6,30.05,East,90,0.0,1.0,99,0.00,,,0.00,meteohub,2013-04-02 09:33:00,
2013-04-02 05:38:00,63.0,62.6,30.05,East,90,0.0,1.0,99,0.00,,,0.00,meteohub,2013-04-02 09:38:00,
2013-04-02 05:43:00,63.0,62.6,30.05,East,90,0.0,1.0,99,0.00,,,0.00,meteohub,2013-04-02 09:43:00,
2013-04-02 05:48:00,62.8,62.4,30.06,East,90,0.0,0.0,99,0.00,,,0.00,meteohub,2013-04-02 09:48:00,
2013-04-02 05:54:00,62.4,62.1,30.05,East,90,1.0,0.0,99,0.00,,,0.00,meteohub,2013-04-02 09:54:00,
2013-04-02 05:59:00,62.4,62.1,30.06,East,90,0.0,0.0,99,0.00,,,0.00,meteohub,2013-04-02 09:59:00,
2013-04-02 06:04:00,62.4,62.1,30.05,East,90,0.0,1.0,99,0.00,,,0.00,meteohub,2013-04-02 10:04:00,
2013-04-02 06:09:00,62.1,61.7,30.06,East,90,0.0,1.0,99,0.00,,,0.00,meteohub,2013-04-02 10:09:00,
2013-04-02 06:15:00,61.9,61.5,30.06,East,90,0.0,0.0,99,0.00,,,0.00,meteohub,2013-04-02 10:15:00,
2013-04-02 06:20:00,61.7,61.3,30.06,East,90,0.0,0.0,99,0.00,,,0.00,meteohub,2013-04-02 10:20:00,
2013-04-02 06:25:00,61.5,61.2,30.06,East,90,0.0,0.0,99,0.00,,,0.00,meteohub,2013-04-02 10:25:00,
2013-04-02 06:31:00,61.5,61.2,30.06,East,90,0.0,0.0,99,0.00,,,0.00,meteohub,2013-04-02 10:31:00,
2013-04-02 06:36:00,61.3,61.0,30.06,East,90,0.0,0.0,99,0.00,,,0.00,meteohub,2013-04-02 10:36:00,
2013-04-02 06:41:00,61.3,61.0,30.07,East,90,0.0,0.0,99,0.00,,,0.00,meteohub,2013-04-02 10:41:00,
2013-04-02 06:47:00,61.2,60.8,30.07,East,90,0.0,0.0,99,0.00,,,0.00,meteohub,2013-04-02 10:47:00,
2013-04-02 06:52:00,61.0,60.6,30.07,East,90,0.0,0.0,99,0.00,,,0.00,meteohub,2013-04-02 10:52:00,
2013-04-02 06:57:00,60.8,60.4,30.07,SE,135,0.0,0.0,99,0.00,,,0.00,meteohub,2013-04-02 10:57:00,
2013-04-02 07:02:00,60.8,60.4,30.08,SE,135,0.0,0.0,99,0.00,,,0.00,meteohub,2013-04-02 11:02:00,
2013-04-02 07:07:00,61.0,60.6,30.08,East,90,0.0,0.0,99,0.00,,,0.00,meteohub,2013-04-02 11:07:00,
2013-04-02 07:12:00,61.0,60.6,30.08,SE,135,0.0,0.0,99,0.00,,,0.00,meteohub,2013-04-02 11:12:00,
2013-04-02 07:18:00,61.2,60.8,30.08,East,90,0.0,0.0,99,0.00,,,0.00,meteohub,2013-04-02 11:18:00,
2013-04-02 07:23:00,61.3,61.0,30.09,SE,135,0.0,0.0,99,0.00,,,0.00,meteohub,2013-04-02 11:23:00,
2013-04-02 07:28:00,61.5,61.2,30.09,SE,135,0.0,0.0,99,0.00,,,0.00,meteohub,2013-04-02 11:28:00,
2013-04-02 07:33:00,61.9,61.5,30.09,SE,135,0.0,0.0,99,0.00,,,0.00,meteohub,2013-04-02 11:33:00,
2013-04-02 07:38:00,62.2,61.9,30.09,East,90,2.0,0.0,99,0.00,,,0.00,meteohub,2013-04-02 11:38:00,
2013-04-02 07:44:00,62.8,62.4,30.09,SE,135,2.0,2.0,99,0.00,,,0.00,meteohub,2013-04-02 11:44:00,
2013-04-02 07:49:00,63.3,63.0,30.09,East,90,2.0,4.0,99,0.00,,,0.00,meteohub,2013-04-02 11:49:00,
2013-04-02 07:54:00,64.2,63.9,30.10,SE,135,4.0,4.0,99,0.00,,,0.00,meteohub,2013-04-02 11:54:00,
2013-04-02 07:59:00,64.6,64.2,30.10,South,180,2.0,4.0,99,0.00,,,0.00,meteohub,2013-04-02 11:59:00,
2013-04-02 08:05:00,64.9,64.6,30.10,South,180,4.0,4.0,99,0.00,,,0.00,meteohub,2013-04-02 12:05:00,
2013-04-02 08:10:00,65.8,65.5,30.10,SW,225,2.0,4.0,99,0.00,,,0.00,meteohub,2013-04-02 12:10:00,
2013-04-02 08:15:00,66.6,66.2,30.10,South,180,4.0,5.0,99,0.00,,,0.00,meteohub,2013-04-02 12:15:00,
2013-04-02 08:20:00,67.1,65.8,30.10,SE,135,4.0,6.0,96,0.00,,,0.00,meteohub,2013-04-02 12:20:00,
2013-04-02 08:26:00,68.0,66.2,30.10,South,180,4.0,6.0,94,0.00,,,0.00,meteohub,2013-04-02 12:26:00,
2013-04-02 08:31:00,68.2,65.8,30.10,SE,135,3.0,6.0,92,0.00,,,0.00,meteohub,2013-04-02 12:31:00,
2013-04-02 08:36:00,68.9,66.2,30.10,East,90,2.0,6.0,91,0.00,,,0.00,meteohub,2013-04-02 12:36:00,
2013-04-02 08:41:00,69.3,65.8,30.11,South,180,2.0,6.0,89,0.00,,,0.00,meteohub,2013-04-02 12:41:00,
2013-04-02 08:46:00,69.4,65.1,30.10,South,180,6.0,6.0,86,0.00,,,0.00,meteohub,2013-04-02 12:46:00,
2013-04-02 08:51:00,69.4,65.1,30.10,East,90,4.0,6.0,86,0.00,,,0.00,meteohub,2013-04-02 12:51:00,
2013-04-02 08:57:00,69.4,64.8,30.11,SW,225,5.0,6.0,85,0.00,,,0.00,meteohub,2013-04-02 12:57:00,
2013-04-02 09:02:00,69.6,64.6,30.11,SE,135,5.0,6.0,84,0.00,,,0.00,meteohub,2013-04-02 13:02:00,
2013-04-02 09:07:00,69.6,64.6,30.11,East,90,2.0,7.0,84,0.00,,,0.00,meteohub,2013-04-02 13:07:00,
2013-04-02 09:12:00,70.0,64.6,30.11,SSW,203,4.0,7.0,83,0.00,,,0.00,meteohub,2013-04-02 13:12:00,
2013-04-02 09:17:00,70.2,64.4,30.11,East,90,2.0,7.0,82,0.00,,,0.00,meteohub,2013-04-02 13:17:00,
2013-04-02 09:22:00,70.7,64.6,30.11,South,180,2.0,7.0,81,0.00,,,0.00,meteohub,2013-04-02 13:22:00,
2013-04-02 09:27:00,70.9,63.7,30.11,South,180,5.0,6.0,78,0.00,,,0.00,meteohub,2013-04-02 13:27:00,
2013-04-02 09:32:00,71.4,63.9,30.11,SW,225,4.0,5.0,77,0.00,,,0.00,meteohub,2013-04-02 13:32:00,
2013-04-02 09:38:00,71.6,63.7,30.11,SW,225,4.0,5.0,76,0.00,,,0.00,meteohub,2013-04-02 13:38:00,
2013-04-02 09:43:00,71.4,63.9,30.12,South,180,4.0,5.0,77,0.00,,,0.00,meteohub,2013-04-02 13:43:00,
2013-04-02 09:48:00,71.4,63.9,30.11,SW,225,3.0,6.0,77,0.00,,,0.00,meteohub,2013-04-02 13:48:00,
2013-04-02 09:53:00,71.8,63.5,30.12,SW,225,6.0,6.0,75,0.00,,,0.00,meteohub,2013-04-02 13:53:00,
2013-04-02 09:58:00,71.8,64.2,30.12,SE,135,3.0,6.0,77,0.00,,,0.00,meteohub,2013-04-02 13:58:00,
2013-04-02 10:04:00,72.0,64.0,30.12,South,180,4.0,6.0,76,0.00,,,0.00,meteohub,2013-04-02 14:04:00,
2013-04-02 10:09:00,72.0,64.0,30.12,SE,135,4.0,7.0,76,0.00,,,0.00,meteohub,2013-04-02 14:09:00,
2013-04-02 10:14:00,73.2,64.4,30.12,SW,225,4.0,7.0,74,0.00,,,0.00,meteohub,2013-04-02 14:14:00,
2013-04-02 10:19:00,73.2,64.0,30.12,South,180,4.0,7.0,73,0.00,,,0.00,meteohub,2013-04-02 14:19:00,
2013-04-02 10:25:00,73.6,64.4,30.11,South,180,2.0,6.0,73,0.00,,,0.00,meteohub,2013-04-02 14:25:00,
2013-04-02 10:30:00,74.1,64.6,30.12,SW,225,2.0,6.0,72,0.00,,,0.00,meteohub,2013-04-02 14:30:00,
2013-04-02 10:35:00,74.3,64.8,30.12,SE,135,4.0,5.0,72,0.00,,,0.00,meteohub,2013-04-02 14:35:00,
2013-04-02 10:40:00,74.5,64.0,30.12,SE,135,5.0,7.0,70,0.00,,,0.00,meteohub,2013-04-02 14:40:00,
2013-04-02 10:46:00,74.5,64.4,30.12,East,90,4.0,7.0,71,0.00,,,0.00,meteohub,2013-04-02 14:46:00,
2013-04-02 10:51:00,74.1,64.9,30.12,SW,225,2.0,8.0,73,0.00,,,0.00,meteohub,2013-04-02 14:51:00,
2013-04-02 10:56:00,74.5,64.9,30.12,South,180,4.0,8.0,72,0.00,,,0.00,meteohub,2013-04-02 14:56:00,
2013-04-02 11:01:00,75.0,65.3,30.12,South,180,4.0,7.0,72,0.00,,,0.00,meteohub,2013-04-02 15:01:00,
2013-04-02 11:06:00,75.4,65.3,30.12,South,180,5.0,6.0,71,0.00,,,0.00,meteohub,2013-04-02 15:06:00,
2013-04-02 11:12:00,75.2,65.1,30.12,NW,315,2.0,5.0,71,0.00,,,0.00,meteohub,2013-04-02 15:12:00,
2013-04-02 11:17:00,75.9,64.9,30.11,SE,135,9.0,9.0,69,0.00,,,0.00,meteohub,2013-04-02 15:17:00,
2013-04-02 11:22:00,76.6,65.7,30.11,East,90,4.0,9.0,69,0.00,,,0.00,meteohub,2013-04-02 15:22:00,
2013-04-02 11:27:00,77.9,65.1,30.11,SE,135,4.0,9.0,65,0.00,,,0.00,meteohub,2013-04-02 15:27:00,
2013-04-02 11:32:00,78.6,64.9,30.11,SW,225,2.0,9.0,63,0.00,,,0.00,meteohub,2013-04-02 15:32:00,
2013-04-02 11:37:00,78.8,65.1,30.11,SE,135,4.0,4.0,63,0.00,,,0.00,meteohub,2013-04-02 15:37:00,
2013-04-02 11:42:00,78.6,64.9,30.11,SW,225,4.0,5.0,63,0.00,,,0.00,meteohub,2013-04-02 15:42:00,
2013-04-02 11:47:00,78.3,65.1,30.11,SW,225,6.0,6.0,64,0.00,,,0.00,meteohub,2013-04-02 15:47:00,
2013-04-02 11:52:00,77.5,65.3,30.11,NW,315,3.0,8.0,66,0.00,,,0.00,meteohub,2013-04-02 15:52:00,
2013-04-02 11:57:00,78.1,65.3,30.10,South,180,3.0,8.0,65,0.00,,,0.00,meteohub,2013-04-02 15:57:00,
2013-04-02 12:02:00,78.6,65.5,30.11,SE,135,4.0,8.0,64,0.00,,,0.00,meteohub,2013-04-02 16:02:00,
2013-04-02 12:07:00,77.5,65.3,30.10,SW,225,4.0,8.0,66,0.00,,,0.00,meteohub,2013-04-02 16:07:00,
2013-04-02 12:13:00,78.1,65.3,30.11,South,180,4.0,8.0,65,0.00,,,0.00,meteohub,2013-04-02 16:13:00,
2013-04-02 12:18:00,78.4,65.3,30.11,East,90,7.0,8.0,64,0.00,,,0.00,meteohub,2013-04-02 16:18:00,
2013-04-02 12:23:00,78.4,65.3,30.10,SE,135,5.0,7.0,64,0.00,,,0.00,meteohub,2013-04-02 16:23:00,
2013-04-02 12:28:00,79.0,65.8,30.11,West,270,4.0,7.0,64,0.00,,,0.00,meteohub,2013-04-02 16:28:00,
2013-04-02 12:34:00,79.3,65.7,30.11,East,90,8.0,8.0,63,0.00,,,0.00,meteohub,2013-04-02 16:34:00,
2013-04-02 12:39:00,78.8,65.1,30.11,South,180,3.0,7.0,63,0.00,,,0.00,meteohub,2013-04-02 16:39:00,
2013-04-02 12:44:00,78.6,65.5,30.11,East,90,2.0,8.0,64,0.00,,,0.00,meteohub,2013-04-02 16:44:00,
2013-04-02 12:49:00,78.8,65.1,30.11,East,90,6.0,8.0,63,0.00,,,0.00,meteohub,2013-04-02 16:49:00,
2013-04-02 12:54:00,78.1,65.3,30.10,NE,45,4.0,8.0,65,0.00,,,0.00,meteohub,2013-04-02 16:54:00,
2013-04-02 13:00:00,78.3,64.6,30.11,East,90,7.0,8.0,63,0.00,,,0.00,meteohub,2013-04-02 17:00:00,
2013-04-02 13:05:00,77.9,65.1,30.10,East,90,7.0,8.0,65,0.00,,,0.00,meteohub,2013-04-02 17:05:00,
2013-04-02 13:10:00,77.4,65.5,30.10,South,180,5.0,8.0,67,0.00,,,0.00,meteohub,2013-04-02 17:10:00,
2013-04-02 13:15:00,77.9,65.7,30.10,South,180,4.0,8.0,66,0.00,,,0.00,meteohub,2013-04-02 17:15:00,
2013-04-02 13:20:00,77.9,65.1,30.10,East,90,6.0,8.0,65,0.00,,,0.00,meteohub,2013-04-02 17:20:00,
2013-04-02 13:26:00,77.5,65.3,30.10,East,90,7.0,8.0,66,0.00,,,0.00,meteohub,2013-04-02 17:26:00,
2013-04-02 13:31:00,77.5,65.7,30.10,South,180,5.0,8.0,67,0.00,,,0.00,meteohub,2013-04-02 17:31:00,
2013-04-02 13:37:00,78.3,66.0,30.10,WSW,248,4.0,8.0,66,0.00,,,0.00,meteohub,2013-04-02 17:37:00,
2013-04-02 13:42:00,77.5,65.7,30.09,SE,135,4.0,8.0,67,0.00,,,0.00,meteohub,2013-04-02 17:42:00,
2013-04-02 13:47:00,77.5,65.7,30.09,SW,225,4.0,8.0,67,0.00,,,0.00,meteohub,2013-04-02 17:47:00,
2013-04-02 13:52:00,77.5,66.2,30.09,SE,135,6.0,8.0,68,0.00,,,0.00,meteohub,2013-04-02 17:52:00,
2013-04-02 13:57:00,77.7,65.8,30.08,SW,225,6.0,8.0,67,0.00,,,0.00,meteohub,2013-04-02 17:57:00,
2013-04-02 14:02:00,78.3,65.5,30.07,SE,135,4.0,9.0,65,0.00,,,0.00,meteohub,2013-04-02 18:02:00,
2013-04-02 14:07:00,79.0,65.3,30.08,East,90,5.0,9.0,63,0.00,,,0.00,meteohub,2013-04-02 18:07:00,
2013-04-02 14:12:00,79.5,64.9,30.07,SE,135,8.0,9.0,61,0.00,,,0.00,meteohub,2013-04-02 18:12:00,
2013-04-02 14:18:00,79.9,66.2,30.07,South,180,6.0,8.0,63,0.00,,,0.00,meteohub,2013-04-02 18:18:00,
2013-04-02 14:23:00,79.9,64.8,30.06,East,90,4.0,8.0,60,0.00,,,0.00,meteohub,2013-04-02 18:23:00,
2013-04-02 14:28:00,79.7,64.6,30.06,SE,135,6.0,8.0,60,0.00,,,0.00,meteohub,2013-04-02 18:28:00,
2013-04-02 14:33:00,79.5,64.9,30.06,East,90,7.0,8.0,61,0.00,,,0.00,meteohub,2013-04-02 18:33:00,
2013-04-02 14:38:00,79.7,65.1,30.06,South,180,8.0,9.0,61,0.00,,,0.00,meteohub,2013-04-02 18:38:00,
2013-04-02 14:43:00,79.2,64.0,30.06,East,90,7.0,9.0,60,0.00,,,0.00,meteohub,2013-04-02 18:43:00,
2013-04-02 14:49:00,79.0,64.8,30.05,South,180,6.0,9.0,62,0.00,,,0.00,meteohub,2013-04-02 18:49:00,
2013-04-02 14:54:00,79.3,64.2,30.06,South,180,7.0,10.0,60,0.00,,,0.00,meteohub,2013-04-02 18:54:00,
2013-04-02 14:59:00,79.0,64.4,30.05,ESE,113,6.0,10.0,61,0.00,,,0.00,meteohub,2013-04-02 18:59:00,
2013-04-02 15:05:00,79.0,64.4,30.05,ENE,68,5.0,8.0,61,0.00,,,0.00,meteohub,2013-04-02 19:05:00,
2013-04-02 15:10:00,79.0,64.4,30.05,SE,135,4.0,8.0,61,0.00,,,0.00,meteohub,2013-04-02 19:10:00,
2013-04-02 15:15:00,79.0,63.0,30.04,SE,135,8.0,8.0,58,0.00,,,0.00,meteohub,2013-04-02 19:15:00,
2013-04-02 15:20:00,79.0,63.5,30.04,North,0,5.0,8.0,59,0.00,,,0.00,meteohub,2013-04-02 19:20:00,
2013-04-02 15:25:00,79.3,64.2,30.04,SE,135,2.0,8.0,60,0.00,,,0.00,meteohub,2013-04-02 19:25:00,
2013-04-02 15:30:00,79.3,63.7,30.04,South,180,4.0,8.0,59,0.00,,,0.00,meteohub,2013-04-02 19:30:00,
2013-04-02 15:35:00,80.1,63.9,30.04,SE,135,6.0,8.0,58,0.00,,,0.00,meteohub,2013-04-02 19:35:00,
2013-04-02 15:40:00,79.9,64.2,30.04,South,180,3.0,8.0,59,0.00,,,0.00,meteohub,2013-04-02 19:40:00,
2013-04-02 15:46:00,79.7,64.0,30.04,East,90,5.0,7.0,59,0.00,,,0.00,meteohub,2013-04-02 19:46:00,
2013-04-02 15:51:00,79.3,63.3,30.04,South,180,5.0,7.0,58,0.00,,,0.00,meteohub,2013-04-02 19:51:00,
2013-04-02 15:57:00,78.8,63.3,30.04,East,90,8.0,8.0,59,0.00,,,0.00,meteohub,2013-04-02 19:57:00,
2013-04-02 16:02:00,78.1,63.5,30.04,East,90,8.0,10.0,61,0.00,,,0.00,meteohub,2013-04-02 20:02:00,
2013-04-02 16:07:00,77.7,63.7,30.04,East,90,9.0,10.0,62,0.00,,,0.00,meteohub,2013-04-02 20:07:00,
2013-04-02 16:12:00,77.5,63.9,30.04,SE,135,4.0,10.0,63,0.00,,,0.00,meteohub,2013-04-02 20:12:00,
2013-04-02 16:17:00,78.6,64.6,30.04,East,90,5.0,9.0,62,0.00,,,0.00,meteohub,2013-04-02 20:17:00,
2013-04-02 16:22:00,78.4,63.3,30.04,East,90,7.0,9.0,60,0.00,,,0.00,meteohub,2013-04-02 20:22:00,
2013-04-02 16:27:00,78.3,63.7,30.04,East,90,8.0,8.0,61,0.00,,,0.00,meteohub,2013-04-02 20:27:00,
2013-04-02 16:32:00,77.7,64.0,30.04,South,180,3.0,8.0,63,0.00,,,0.00,meteohub,2013-04-02 20:32:00,
2013-04-02 16:38:00,77.5,63.5,30.04,SW,225,4.0,8.0,62,0.00,,,0.00,meteohub,2013-04-02 20:38:00,
2013-04-02 16:43:00,77.9,63.3,30.04,SE,135,4.0,9.0,61,0.00,,,0.00,meteohub,2013-04-02 20:43:00,
2013-04-02 16:48:00,77.9,63.9,30.04,East,90,4.0,9.0,62,0.00,,,0.00,meteohub,2013-04-02 20:48:00,
2013-04-02 16:53:00,78.3,62.2,30.04,South,180,8.0,9.0,58,0.00,,,0.00,meteohub,2013-04-02 20:53:00,
2013-04-02 16:58:00,78.8,61.7,30.04,East,90,6.0,9.0,56,0.00,,,0.00,meteohub,2013-04-02 20:58:00,
2013-04-02 17:04:00,78.6,63.5,30.04,ESE,113,6.0,8.0,60,0.00,,,0.00,meteohub,2013-04-02 21:04:00,
2013-04-02 17:09:00,78.6,63.5,30.04,SE,135,2.0,8.0,60,0.00,,,0.00,meteohub,2013-04-02 21:09:00,
2013-04-02 17:14:00,79.3,62.8,30.04,South,180,6.0,8.0,57,0.00,,,0.00,meteohub,2013-04-02 21:14:00,
2013-04-02 17:19:00,78.4,62.4,30.05,SE,135,4.0,8.0,58,0.00,,,0.00,meteohub,2013-04-02 21:19:00,
2013-04-02 17:25:00,78.4,61.9,30.04,NW,315,5.0,6.0,57,0.00,,,0.00,meteohub,2013-04-02 21:25:00,
2013-04-02 17:30:00,78.3,61.7,30.04,SE,135,4.0,8.0,57,0.00,,,0.00,meteohub,2013-04-02 21:30:00,
2013-04-02 17:35:00,78.4,61.5,30.04,SE,135,4.0,8.0,56,0.00,,,0.00,meteohub,2013-04-02 21:35:00,
2013-04-02 17:40:00,79.0,61.9,30.04,South,180,4.0,8.0,56,0.00,,,0.00,meteohub,2013-04-02 21:40:00,
2013-04-02 17:46:00,79.0,61.5,30.04,East,90,3.0,8.0,55,0.00,,,0.00,meteohub,2013-04-02 21:46:00,
2013-04-02 17:52:00,79.9,62.2,30.04,South,180,4.0,8.0,55,0.00,,,0.00,meteohub,2013-04-02 21:52:00,
2013-04-02 17:57:00,79.7,62.6,30.04,East,90,4.0,8.0,56,0.00,,,0.00,meteohub,2013-04-02 21:57:00,
2013-04-02 18:02:00,79.3,61.7,30.04,East,90,6.0,6.0,55,0.00,,,0.00,meteohub,2013-04-02 22:02:00,
2013-04-02 18:08:00,78.6,61.5,30.05,East,90,6.0,6.0,56,0.00,,,0.00,meteohub,2013-04-02 22:08:00,
2013-04-02 18:13:00,78.4,61.9,30.04,South,180,2.0,8.0,57,0.00,,,0.00,meteohub,2013-04-02 22:13:00,
2013-04-02 18:18:00,78.6,62.1,30.05,SE,135,7.0,9.0,57,0.00,,,0.00,meteohub,2013-04-02 22:18:00,
2013-04-02 18:23:00,78.4,62.4,30.04,South,180,7.0,9.0,58,0.00,,,0.00,meteohub,2013-04-02 22:23:00,
2013-04-02 18:28:00,78.1,63.5,30.04,NW,315,2.0,8.0,61,0.00,,,0.00,meteohub,2013-04-02 22:28:00,
2013-04-02 18:34:00,78.4,63.9,30.04,East,90,3.0,7.0,61,0.00,,,0.00,meteohub,2013-04-02 22:34:00,
2013-04-02 18:39:00,77.4,63.3,30.04,South,180,7.0,7.0,62,0.00,,,0.00,meteohub,2013-04-02 22:39:00,
2013-04-02 18:44:00,77.0,63.5,30.05,SE,135,4.0,6.0,63,0.00,,,0.00,meteohub,2013-04-02 22:44:00,
2013-04-02 18:49:00,76.3,63.1,30.05,SE,135,8.0,8.0,64,0.00,,,0.00,meteohub,2013-04-02 22:49:00,
2013-04-02 18:55:00,75.6,63.3,30.05,NE,45,5.0,8.0,66,0.00,,,0.00,meteohub,2013-04-02 22:55:00,
2013-04-02 19:00:00,75.4,63.7,30.04,East,90,3.0,8.0,67,0.00,,,0.00,meteohub,2013-04-02 23:00:00,
2013-04-02 19:05:00,75.0,63.3,30.04,SE,135,4.0,8.0,67,0.00,,,0.00,meteohub,2013-04-02 23:05:00,
2013-04-02 19:10:00,74.7,63.0,30.04,SE,135,2.0,6.0,67,0.00,,,0.00,meteohub,2013-04-02 23:10:00,
2013-04-02 19:15:00,74.3,63.5,30.04,SE,135,4.0,6.0,69,0.00,,,0.00,meteohub,2013-04-02 23:15:00,
2013-04-02 19:20:00,74.1,63.3,30.04,SE,135,2.0,5.0,69,0.00,,,0.00,meteohub,2013-04-02 23:20:00,
2013-04-02 19:26:00,73.4,62.6,30.04,ESE,113,2.0,5.0,69,0.00,,,0.00,meteohub,2013-04-02 23:26:00,
2013-04-02 19:31:00,72.1,62.6,30.04,NE,45,3.0,4.0,72,0.00,,,0.00,meteohub,2013-04-02 23:31:00,
2013-04-02 19:37:00,71.4,62.2,30.04,SE,135,3.0,5.0,73,0.00,,,0.00,meteohub,2013-04-02 23:37:00,
2013-04-02 19:42:00,70.9,62.6,30.04,SE,135,2.0,5.0,75,0.00,,,0.00,meteohub,2013-04-02 23:42:00,
2013-04-02 19:47:00,70.3,62.4,30.04,East,90,2.0,5.0,76,0.00,,,0.00,meteohub,2013-04-02 23:47:00,
2013-04-02 19:52:00,70.2,63.0,30.04,East,90,2.0,4.0,78,0.00,,,0.00,meteohub,2013-04-02 23:52:00,
2013-04-02 19:57:00,70.0,62.8,30.05,SE,135,0.0,4.0,78,0.00,,,0.00,meteohub,2013-04-02 23:57:00,
2013-04-02 20:03:00,69.6,63.1,30.05,East,90,2.0,4.0,80,0.00,,,0.00,meteohub,2013-04-03 00:03:00,
2013-04-02 20:08:00,69.3,62.8,30.06,South,180,2.0,4.0,80,0.00,,,0.00,meteohub,2013-04-03 00:08:00,
2013-04-02 20:13:00,69.1,62.6,30.05,South,180,2.0,3.0,80,0.00,,,0.00,meteohub,2013-04-03 00:13:00,
2013-04-02 20:19:00,69.1,63.3,30.06,SE,135,3.0,4.0,82,0.00,,,0.00,meteohub,2013-04-03 00:19:00,
2013-04-02 20:24:00,68.5,62.8,30.05,SW,225,1.0,4.0,82,0.00,,,0.00,meteohub,2013-04-03 00:24:00,
2013-04-02 20:29:00,68.5,62.8,30.06,South,180,1.0,4.0,82,0.00,,,0.00,meteohub,2013-04-03 00:29:00,
2013-04-02 20:34:00,68.4,63.0,30.06,SE,135,1.0,3.0,83,0.00,,,0.00,meteohub,2013-04-03 00:34:00,
2013-04-02 20:39:00,68.0,63.0,30.07,South,180,1.0,2.0,84,0.00,,,0.00,meteohub,2013-04-03 00:39:00,
2013-04-02 20:44:00,67.8,62.8,30.06,South,180,1.0,2.0,84,0.00,,,0.00,meteohub,2013-04-03 00:44:00,
2013-04-02 20:50:00,67.8,63.1,30.07,East,90,0.0,3.0,85,0.00,,,0.00,meteohub,2013-04-03 00:50:00,
2013-04-02 20:55:00,67.6,63.0,30.07,South,180,0.0,3.0,85,0.00,,,0.00,meteohub,2013-04-03 00:55:00,
2013-04-02 21:00:00,67.5,62.8,30.07,South,180,0.0,3.0,85,0.00,,,0.00,meteohub,2013-04-03 01:00:00,
2013-04-02 21:05:00,67.1,62.4,30.07,East,90,1.0,2.0,85,0.00,,,0.00,meteohub,2013-04-03 01:05:00,
2013-04-02 21:10:00,66.9,62.6,30.06,East,90,0.0,1.0,86,0.00,,,0.00,meteohub,2013-04-03 01:10:00,
2013-04-02 21:15:00,66.7,62.4,30.06,East,90,0.0,1.0,86,0.00,,,0.00,meteohub,2013-04-03 01:15:00,
2013-04-02 21:21:00,66.6,62.6,30.06,East,90,0.0,1.0,87,0.00,,,0.00,meteohub,2013-04-03 01:21:00,
2013-04-02 21:26:00,66.2,62.2,30.07,East,90,0.0,0.0,87,0.00,,,0.00,meteohub,2013-04-03 01:26:00,
2013-04-02 21:31:00,65.8,62.2,30.07,East,90,0.0,0.0,88,0.00,,,0.00,meteohub,2013-04-03 01:31:00,
2013-04-02 21:36:00,65.7,62.2,30.07,East,90,1.0,0.0,89,0.00,,,0.00,meteohub,2013-04-03 01:36:00,
2013-04-02 21:42:00,65.7,63.0,30.07,East,90,0.0,2.0,91,0.00,,,0.00,meteohub,2013-04-03 01:42:00,
2013-04-02 21:47:00,65.5,62.8,30.07,East,90,0.0,2.0,91,0.00,,,0.00,meteohub,2013-04-03 01:47:00,
2013-04-02 21:52:00,65.3,62.6,30.07,East,90,1.0,2.0,91,0.00,,,0.00,meteohub,2013-04-03 01:52:00,
2013-04-02 21:57:00,65.1,62.8,30.06,NW,315,1.0,2.0,92,0.00,,,0.00,meteohub,2013-04-03 01:57:00,
2013-04-02 22:03:00,64.9,62.6,30.06,NW,315,0.0,2.0,92,0.00,,,0.00,meteohub,2013-04-03 02:03:00,
2013-04-02 22:08:00,64.8,62.4,30.06,NW,315,0.0,2.0,92,0.00,,,0.00,meteohub,2013-04-03 02:08:00,
2013-04-02 22:13:00,64.6,62.2,30.06,NW,315,0.0,2.0,92,0.00,,,0.00,meteohub,2013-04-03 02:13:00,
2013-04-02 22:19:00,64.6,62.2,30.07,NW,315,0.0,0.0,92,0.00,,,0.00,meteohub,2013-04-03 02:19:00,
2013-04-02 22:24:00,64.4,62.1,30.08,NW,315,0.0,0.0,92,0.00,,,0.00,meteohub,2013-04-03 02:24:00,
2013-04-02 22:29:00,64.2,62.2,30.08,East,90,0.0,0.0,93,0.00,,,0.00,meteohub,2013-04-03 02:29:00,
2013-04-02 22:35:00,64.0,62.2,30.08,East,90,0.0,0.0,94,0.00,,,0.00,meteohub,2013-04-03 02:35:00,
2013-04-02 22:40:00,64.0,62.2,30.09,NW,315,2.0,2.0,94,0.00,,,0.00,meteohub,2013-04-03 02:40:00,
2013-04-02 22:45:00,64.4,63.3,30.09,NE,45,2.0,4.0,96,0.00,,,0.00,meteohub,2013-04-03 02:45:00,
2013-04-02 22:50:00,64.4,63.3,30.10,NW,315,3.0,4.0,96,0.00,,,0.00,meteohub,2013-04-03 02:50:00,
2013-04-02 22:56:00,64.4,63.3,30.10,SE,135,0.0,4.0,96,0.00,,,0.00,meteohub,2013-04-03 02:56:00,
2013-04-02 23:02:00,64.4,63.3,30.10,SE,135,0.0,3.0,96,0.00,,,0.00,meteohub,2013-04-03 03:02:00,
2013-04-02 23:07:00,64.2,62.8,30.11,SW,225,0.0,3.0,95,0.00,,,0.00,meteohub,2013-04-03 03:07:00,
2013-04-02 23:12:00,64.2,62.8,30.11,NE,45,0.0,2.0,95,0.00,,,0.00,meteohub,2013-04-03 03:12:00,
2013-04-02 23:18:00,64.2,63.1,30.12,East,90,1.0,1.0,96,0.00,,,0.00,meteohub,2013-04-03 03:18:00,
2013-04-02 23:23:00,64.2,63.1,30.12,East,90,1.0,1.0,96,0.00,,,0.00,meteohub,2013-04-03 03:23:00,
2013-04-02 23:28:00,63.9,62.4,30.11,East,90,0.0,1.0,95,0.00,,,0.00,meteohub,2013-04-03 03:28:00,
2013-04-02 23:34:00,64.0,63.0,30.12,NW,315,1.0,1.0,96,0.00,,,0.00,meteohub,2013-04-03 03:34:00,
2013-04-02 23:39:00,64.2,63.1,30.12,NW,315,0.0,1.0,96,0.00,,,0.00,meteohub,2013-04-03 03:39:00,
2013-04-02 23:44:00,64.4,63.3,30.12,NW,315,0.0,1.0,96,0.00,,,0.00,meteohub,2013-04-03 03:44:00,
2013-04-02 23:50:00,64.8,63.7,30.12,NW,315,0.0,1.0,96,0.00,,,0.00,meteohub,2013-04-03 03:50:00,
2013-04-02 23:55:00,64.9,63.9,30.11,South,180,0.0,0.0,96,0.00,,,0.00,meteohub,2013-04-03 03:55:00,